Location: Peebles
(55.6412°N, 3.1714°W)
Time: 13:34:02
(UTC+01:00)

CHARLIE (NANOAVIONICS) - Pass Details

Date: 08 July 2022
Orbit: 506 x 524 km, 97.4° (Epoch: 16 August)

Event Time Altitude Azimuth Distance (km) Brightness Sun altitude
Rises 23:03:16 0° 204° (SSW) 2,657 ? -6.9°
Reaches altitude 10° 23:05:51 10° 223° (SW) 1,773 ? -7.1°
Maximum altitude 23:08:38 19° 270° (W) 1,300 ? -7.3°
Drops below altitude 10° 23:11:26 10° 317° (NW) 1,780 ? -7.5°
Sets 23:14:02 0° 335° (NNW) 2,672 ? -7.6°
